Photometre #853[NE_1.6_Dp] Portglenone_MO AOT

File : 20210608_853.hum

08/06/2021,05:09:43,TEMP=20.0,BA=5.56,STAT.b=19.0
08/06/2021,05:15:28,TEMP=13.8,BA=5.40,STAT.D,ExtBa=12.40
08/06/2021,05:17:03,TEMP=13.9,BA=5.40,STAT.b=18.0
08/06/2021,05:18:22,TEMP=13.9,BA=5.40,STAT.b=18.0
08/06/2021,05:20:31,TEMP=13.9,BA=5.40,STAT.b=18.0
08/06/2021,05:22:17,TEMP=13.9,BA=5.40,STAT.b=18.0
08/06/2021,05:25:17,TEMP=13.9,BA=5.40,STAT.b=18.0
08/06/2021,05:27:18,TEMP=13.9,BA=5.40,STAT.b=18.0
08/06/2021,05:31:17,TEMP=13.9,BA=5.52,STAT.b=18.0
08/06/2021,05:34:17,TEMP=13.9,BA=5.52,STAT.b=18.0
08/06/2021,05:35:38,TEMP=13.9,BA=5.52,STAT.b=18.0
08/06/2021,05:37:17,TEMP=13.9,BA=5.52,STAT.b=18.0
08/06/2021,05:40:17,TEMP=13.9,BA=5.40,STAT.b=18.0
08/06/2021,05:43:17,TEMP=13.9,BA=5.40,STAT.b=18.0
08/06/2021,05:45:11,TEMP=13.9,BA=5.40,STAT.b=18.0
08/06/2021,05:49:17,TEMP=13.9,BA=5.40,STAT.b=18.0
08/06/2021,05:52:17,TEMP=13.9,BA=5.52,STAT.b=18.0
08/06/2021,05:55:17,TEMP=13.9,BA=5.52,STAT.b=18.0
08/06/2021,05:57:19,TEMP=13.9,BA=5.52,STAT.b=18.0
08/06/2021,06:01:17,TEMP=13.9,BA=5.52,STAT.b=18.0
08/06/2021,06:03:02,TEMP=13.9,BA=5.52,STAT.b=18.0
08/06/2021,06:08:50,TEMP=14.2,BA=5.52,STAT.D,ExtBa=12.40
08/06/2021,06:10:25,TEMP=14.4,BA=5.40,STAT.b=18.0
08/06/2021,06:11:45,TEMP=14.4,BA=5.40,STAT.b=18.0
08/06/2021,06:16:26,TEMP=14.4,BA=5.40,STAT.b=18.0
08/06/2021,06:19:17,TEMP=14.4,BA=5.40,STAT.b=18.0
08/06/2021,06:22:17,TEMP=14.4,BA=5.56,STAT.b=18.0
08/06/2021,06:24:22,TEMP=14.4,BA=5.56,STAT.b=18.0
08/06/2021,06:28:17,TEMP=14.4,BA=5.56,STAT.b=18.0
08/06/2021,06:31:17,TEMP=14.4,BA=5.56,STAT.b=18.0
08/06/2021,06:33:21,TEMP=14.4,BA=5.56,STAT.b=18.0
08/06/2021,06:37:17,TEMP=14.4,BA=5.56,STAT.b=18.0
08/06/2021,06:40:17,TEMP=14.4,BA=5.44,STAT.b=18.0
08/06/2021,06:43:17,TEMP=14.4,BA=5.44,STAT.b=18.0
08/06/2021,06:44:38,TEMP=14.4,BA=5.44,STAT.b=18.0
08/06/2021,06:46:17,TEMP=14.4,BA=5.44,STAT.b=18.0
08/06/2021,06:49:17,TEMP=14.4,BA=5.44,STAT.b=18.0
08/06/2021,06:52:17,TEMP=14.4,BA=5.64,STAT.b=18.0
08/06/2021,06:55:17,TEMP=14.4,BA=5.64,STAT.b=18.0
08/06/2021,06:56:38,TEMP=14.4,BA=5.64,STAT.b=18.0
08/06/2021,06:58:17,TEMP=14.4,BA=5.64,STAT.b=18.0
08/06/2021,07:01:17,TEMP=14.4,BA=5.64,STAT.b=18.0
08/06/2021,07:04:34,TEMP=14.4,BA=5.64,STAT.b=18.0
08/06/2021,07:07:34,TEMP=14.4,BA=5.64,STAT.b=18.0
08/06/2021,07:09:51,TEMP=14.4,BA=5.64,STAT.b=18.0
08/06/2021,07:13:34,TEMP=14.4,BA=5.44,STAT.b=18.0
08/06/2021,07:16:34,TEMP=14.4,BA=5.44,STAT.b=18.0
08/06/2021,07:19:34,TEMP=14.4,BA=5.44,STAT.b=18.0
08/06/2021,07:22:17,TEMP=14.4,BA=5.68,STAT.b=18.0
08/06/2021,07:25:34,TEMP=14.4,BA=5.68,STAT.b=18.0
08/06/2021,07:26:54,TEMP=14.4,BA=5.68,STAT.b=18.0
08/06/2021,07:31:34,TEMP=14.4,BA=5.68,STAT.b=18.0
08/06/2021,07:34:17,TEMP=14.4,BA=5.68,STAT.b=18.0
08/06/2021,07:37:17,TEMP=14.4,BA=5.68,STAT.b=18.0
08/06/2021,07:40:17,TEMP=14.4,BA=5.52,STAT.b=18.0
08/06/2021,07:43:17,TEMP=14.4,BA=5.52,STAT.b=18.0
08/06/2021,07:46:17,TEMP=14.4,BA=5.52,STAT.b=18.0
08/06/2021,07:47:38,TEMP=14.4,BA=5.52,STAT.b=18.0
08/06/2021,07:49:17,TEMP=14.4,BA=5.52,STAT.b=18.0
08/06/2021,07:52:17,TEMP=14.4,BA=5.72,STAT.b=18.0
08/06/2021,07:55:17,TEMP=14.4,BA=5.72,STAT.b=18.0
08/06/2021,07:58:17,TEMP=14.4,BA=5.72,STAT.b=18.0
08/06/2021,08:01:17,TEMP=14.4,BA=5.72,STAT.b=18.0
08/06/2021,08:04:17,TEMP=14.4,BA=5.72,STAT.b=18.0
08/06/2021,08:07:17,TEMP=14.4,BA=5.72,STAT.b=18.0
08/06/2021,08:10:18,TEMP=14.4,BA=5.56,STAT.b=18.0
08/06/2021,08:13:17,TEMP=14.4,BA=5.56,STAT.b=18.0
08/06/2021,08:16:17,TEMP=14.4,BA=5.56,STAT.b=18.0
08/06/2021,08:19:17,TEMP=14.4,BA=5.56,STAT.b=18.0
08/06/2021,08:22:17,TEMP=14.4,BA=5.72,STAT.b=18.0
08/06/2021,08:25:17,TEMP=14.4,BA=5.72,STAT.b=18.0
08/06/2021,08:28:17,TEMP=14.4,BA=5.72,STAT.b=18.0
08/06/2021,08:29:38,TEMP=14.4,BA=5.72,STAT.b=18.0
08/06/2021,08:31:17,TEMP=14.4,BA=5.72,STAT.b=18.0
08/06/2021,08:34:17,TEMP=14.4,BA=5.72,STAT.b=18.0
08/06/2021,08:37:17,TEMP=14.4,BA=5.72,STAT.b=18.0
08/06/2021,08:40:17,TEMP=14.4,BA=5.56,STAT.b=18.0
08/06/2021,08:41:36,TEMP=14.4,BA=5.56,STAT.b=18.0
08/06/2021,08:43:17,TEMP=14.4,BA=5.56,STAT.b=18.0
08/06/2021,08:46:17,TEMP=14.4,BA=5.56,STAT.b=18.0
08/06/2021,08:49:17,TEMP=14.4,BA=5.56,STAT.b=18.0
08/06/2021,08:52:17,TEMP=14.4,BA=5.72,STAT.b=18.0
08/06/2021,08:55:17,TEMP=14.4,BA=5.72,STAT.b=18.0
08/06/2021,08:56:36,TEMP=14.4,BA=5.72,STAT.b=18.0
08/06/2021,08:58:34,TEMP=14.4,BA=5.72,STAT.b=18.0
08/06/2021,09:01:17,TEMP=14.4,BA=5.72,STAT.b=18.0
08/06/2021,09:04:34,TEMP=14.4,BA=5.72,STAT.b=18.0
08/06/2021,09:07:34,TEMP=14.4,BA=5.72,STAT.b=18.0
08/06/2021,09:10:18,TEMP=14.4,BA=5.56,STAT.b=18.0
08/06/2021,09:11:36,TEMP=14.4,BA=5.56,STAT.b=18.0
08/06/2021,09:13:17,TEMP=14.4,BA=5.56,STAT.b=18.0
08/06/2021,09:16:17,TEMP=14.4,BA=5.56,STAT.b=18.0
08/06/2021,09:19:17,TEMP=14.4,BA=5.56,STAT.b=18.0
08/06/2021,09:22:17,TEMP=14.4,BA=5.68,STAT.b=18.0
08/06/2021,09:25:17,TEMP=14.4,BA=5.68,STAT.b=18.0
08/06/2021,09:26:38,TEMP=14.4,BA=5.68,STAT.b=18.0
08/06/2021,09:28:17,TEMP=14.4,BA=5.68,STAT.b=18.0
08/06/2021,09:31:17,TEMP=14.4,BA=5.72,STAT.b=18.0
08/06/2021,09:34:17,TEMP=14.4,BA=5.72,STAT.b=18.0
08/06/2021,09:37:17,TEMP=14.4,BA=5.72,STAT.b=18.0
08/06/2021,09:40:17,TEMP=14.4,BA=5.56,STAT.b=18.0
08/06/2021,09:41:36,TEMP=14.4,BA=5.56,STAT.b=18.0
08/06/2021,09:43:17,TEMP=14.4,BA=5.56,STAT.b=18.0
08/06/2021,09:46:18,TEMP=14.4,BA=5.56,STAT.b=18.0
08/06/2021,09:49:18,TEMP=14.4,BA=5.56,STAT.b=18.0
08/06/2021,09:52:17,TEMP=14.4,BA=5.72,STAT.b=18.0
08/06/2021,09:55:18,TEMP=14.4,BA=5.72,STAT.b=18.0
08/06/2021,09:56:36,TEMP=14.4,BA=5.72,STAT.b=18.0
08/06/2021,09:58:17,TEMP=14.4,BA=5.72,STAT.b=18.0
08/06/2021,10:01:18,TEMP=14.4,BA=5.72,STAT.b=18.0
08/06/2021,10:04:17,TEMP=14.4,BA=5.72,STAT.b=18.0
08/06/2021,10:07:17,TEMP=14.4,BA=5.72,STAT.b=18.0
08/06/2021,10:10:17,TEMP=14.4,BA=5.56,STAT.b=18.0
08/06/2021,10:11:36,TEMP=14.4,BA=5.56,STAT.b=18.0
08/06/2021,10:13:17,TEMP=14.4,BA=5.56,STAT.b=18.0
08/06/2021,10:16:17,TEMP=14.4,BA=5.56,STAT.b=18.0
08/06/2021,10:19:17,TEMP=14.4,BA=5.56,STAT.b=18.0
08/06/2021,10:22:18,TEMP=14.4,BA=5.72,STAT.b=18.0
08/06/2021,10:25:17,TEMP=14.4,BA=5.72,STAT.b=18.0
08/06/2021,10:26:38,TEMP=14.4,BA=5.72,STAT.b=18.0
08/06/2021,10:28:18,TEMP=14.4,BA=5.72,STAT.b=18.0
08/06/2021,10:31:17,TEMP=14.4,BA=5.68,STAT.b=18.0
08/06/2021,10:34:17,TEMP=14.4,BA=5.68,STAT.b=18.0
08/06/2021,10:37:17,TEMP=14.4,BA=5.68,STAT.b=18.0
08/06/2021,10:40:34,TEMP=14.4,BA=5.56,STAT.b=18.0
08/06/2021,10:42:09,TEMP=14.4,BA=5.56,STAT.b=18.0
08/06/2021,10:46:34,TEMP=14.4,BA=5.56,STAT.b=18.0
08/06/2021,10:49:34,TEMP=14.4,BA=5.56,STAT.b=18.0
08/06/2021,10:52:17,TEMP=14.4,BA=5.68,STAT.b=18.0
08/06/2021,10:55:34,TEMP=14.4,BA=5.68,STAT.b=18.0
08/06/2021,10:57:10,TEMP=14.4,BA=5.68,STAT.b=18.0
08/06/2021,11:01:34,TEMP=14.4,BA=5.72,STAT.b=18.0
08/06/2021,11:04:34,TEMP=14.4,BA=5.72,STAT.b=18.0
08/06/2021,11:07:34,TEMP=14.4,BA=5.72,STAT.b=18.0
08/06/2021,11:10:34,TEMP=14.4,BA=5.56,STAT.b=18.0
08/06/2021,11:11:52,TEMP=14.4,BA=5.56,STAT.b=18.0
08/06/2021,11:16:17,TEMP=14.4,BA=5.56,STAT.b=18.0
08/06/2021,11:19:17,TEMP=14.4,BA=5.56,STAT.b=18.0
08/06/2021,11:22:17,TEMP=14.4,BA=5.68,STAT.b=18.0
08/06/2021,11:25:17,TEMP=14.4,BA=5.68,STAT.b=18.0
08/06/2021,11:26:38,TEMP=14.4,BA=5.68,STAT.b=18.0
08/06/2021,11:28:17,TEMP=14.4,BA=5.68,STAT.b=18.0
08/06/2021,11:31:17,TEMP=14.4,BA=5.68,STAT.b=18.0
08/06/2021,11:34:18,TEMP=14.4,BA=5.68,STAT.b=18.0
08/06/2021,11:37:17,TEMP=14.4,BA=5.68,STAT.b=18.0
08/06/2021,11:40:17,TEMP=14.4,BA=5.56,STAT.b=18.0
08/06/2021,11:41:30,TEMP=14.4,BA=5.56,STAT.b=18.0
08/06/2021,11:43:17,TEMP=14.4,BA=5.56,STAT.b=18.0
08/06/2021,11:46:17,TEMP=14.4,BA=5.56,STAT.b=18.0
08/06/2021,11:49:17,TEMP=14.4,BA=5.56,STAT.b=18.0
08/06/2021,11:52:17,TEMP=14.4,BA=5.68,STAT.b=18.0
08/06/2021,11:55:17,TEMP=14.4,BA=5.68,STAT.b=18.0
08/06/2021,11:56:36,TEMP=14.4,BA=5.68,STAT.b=18.0
08/06/2021,11:58:17,TEMP=14.4,BA=5.68,STAT.b=18.0
08/06/2021,12:01:17,TEMP=14.4,BA=5.68,STAT.b=18.0
08/06/2021,12:04:18,TEMP=14.4,BA=5.68,STAT.b=18.0
08/06/2021,12:07:17,TEMP=14.4,BA=5.68,STAT.b=18.0
08/06/2021,12:10:17,TEMP=14.4,BA=5.56,STAT.b=18.0
08/06/2021,12:11:36,TEMP=14.4,BA=5.56,STAT.b=18.0
08/06/2021,12:17:28,TEMP=18.3,BA=5.56,STAT.D,ExtBa=12.30
08/06/2021,12:18:59,TEMP=18.2,BA=5.56,STAT.b=19.0
08/06/2021,12:26:19,TEMP=18.2,BA=5.68,STAT.b=19.0
08/06/2021,12:28:34,TEMP=18.2,BA=5.68,STAT.b=19.0
08/06/2021,12:31:17,TEMP=18.2,BA=5.68,STAT.b=19.0
08/06/2021,12:34:34,TEMP=18.2,BA=5.68,STAT.b=19.0
08/06/2021,12:37:34,TEMP=18.2,BA=5.68,STAT.b=19.0
08/06/2021,12:40:34,TEMP=18.2,BA=5.56,STAT.b=19.0
08/06/2021,12:42:03,TEMP=18.2,BA=5.56,STAT.b=19.0
08/06/2021,12:46:17,TEMP=18.2,BA=5.56,STAT.b=19.0
08/06/2021,12:49:34,TEMP=18.2,BA=5.56,STAT.b=19.0
08/06/2021,12:52:17,TEMP=18.2,BA=5.68,STAT.b=19.0
08/06/2021,12:55:17,TEMP=18.2,BA=5.68,STAT.b=19.0
08/06/2021,12:56:52,TEMP=18.2,BA=5.68,STAT.b=19.0
08/06/2021,13:01:17,TEMP=18.2,BA=5.64,STAT.b=19.0
08/06/2021,13:04:17,TEMP=18.2,BA=5.64,STAT.b=19.0
08/06/2021,13:07:17,TEMP=18.2,BA=5.64,STAT.b=19.0
08/06/2021,13:10:17,TEMP=18.2,BA=5.56,STAT.b=19.0
08/06/2021,13:11:36,TEMP=18.2,BA=5.56,STAT.b=19.0
08/06/2021,13:13:17,TEMP=18.2,BA=5.56,STAT.b=19.0
08/06/2021,13:16:17,TEMP=18.2,BA=5.56,STAT.b=19.0
08/06/2021,13:19:17,TEMP=18.2,BA=5.56,STAT.b=19.0
08/06/2021,13:22:17,TEMP=18.2,BA=5.68,STAT.b=19.0
08/06/2021,13:25:17,TEMP=18.2,BA=5.68,STAT.b=19.0
08/06/2021,13:26:38,TEMP=18.2,BA=5.68,STAT.b=19.0
08/06/2021,13:28:17,TEMP=18.2,BA=5.68,STAT.b=19.0
08/06/2021,13:31:17,TEMP=18.2,BA=5.68,STAT.b=19.0
08/06/2021,13:34:17,TEMP=18.2,BA=5.68,STAT.b=19.0
08/06/2021,13:37:17,TEMP=18.2,BA=5.68,STAT.b=19.0
08/06/2021,13:40:17,TEMP=18.2,BA=5.56,STAT.b=19.0
08/06/2021,13:41:36,TEMP=18.2,BA=5.56,STAT.b=19.0
08/06/2021,13:43:17,TEMP=18.2,BA=5.56,STAT.b=19.0
08/06/2021,13:46:17,TEMP=18.2,BA=5.56,STAT.b=19.0
08/06/2021,13:49:17,TEMP=18.2,BA=5.56,STAT.b=19.0
08/06/2021,13:52:17,TEMP=18.2,BA=5.68,STAT.b=19.0
08/06/2021,13:55:17,TEMP=18.2,BA=5.68,STAT.b=19.0
08/06/2021,13:56:36,TEMP=18.2,BA=5.68,STAT.b=19.0
08/06/2021,13:58:17,TEMP=18.2,BA=5.68,STAT.b=19.0
08/06/2021,14:01:17,TEMP=18.2,BA=5.68,STAT.b=19.0
08/06/2021,14:04:17,TEMP=18.2,BA=5.68,STAT.b=19.0
08/06/2021,14:07:34,TEMP=18.2,BA=5.68,STAT.b=19.0
08/06/2021,14:10:17,TEMP=18.2,BA=5.56,STAT.b=19.0
08/06/2021,14:11:30,TEMP=18.2,BA=5.56,STAT.b=19.0
08/06/2021,14:13:17,TEMP=18.2,BA=5.56,STAT.b=19.0
08/06/2021,14:16:17,TEMP=18.2,BA=5.56,STAT.b=19.0
08/06/2021,14:19:17,TEMP=18.2,BA=5.56,STAT.b=19.0
08/06/2021,14:22:17,TEMP=18.2,BA=5.68,STAT.b=19.0
08/06/2021,14:25:17,TEMP=18.2,BA=5.68,STAT.b=19.0
08/06/2021,14:26:36,TEMP=18.2,BA=5.68,STAT.b=19.0
08/06/2021,14:28:18,TEMP=18.2,BA=5.68,STAT.b=19.0
08/06/2021,14:31:17,TEMP=18.2,BA=5.68,STAT.b=19.0
08/06/2021,14:34:17,TEMP=18.2,BA=5.68,STAT.b=19.0
08/06/2021,14:37:17,TEMP=18.2,BA=5.68,STAT.b=19.0
08/06/2021,14:40:17,TEMP=18.2,BA=5.56,STAT.b=19.0
08/06/2021,14:41:36,TEMP=18.2,BA=5.56,STAT.b=19.0
08/06/2021,14:43:17,TEMP=18.2,BA=5.56,STAT.b=19.0
08/06/2021,14:46:17,TEMP=18.2,BA=5.56,STAT.b=19.0
08/06/2021,14:49:18,TEMP=18.2,BA=5.56,STAT.b=19.0
08/06/2021,14:52:17,TEMP=18.2,BA=5.68,STAT.b=19.0
08/06/2021,14:55:17,TEMP=18.2,BA=5.68,STAT.b=19.0
08/06/2021,14:56:36,TEMP=18.2,BA=5.68,STAT.b=19.0
08/06/2021,14:58:17,TEMP=18.2,BA=5.68,STAT.b=19.0
08/06/2021,15:01:17,TEMP=18.2,BA=5.68,STAT.b=19.0
08/06/2021,15:04:17,TEMP=18.2,BA=5.68,STAT.b=19.0
08/06/2021,15:07:17,TEMP=18.2,BA=5.68,STAT.b=19.0
08/06/2021,15:10:18,TEMP=18.2,BA=5.52,STAT.b=19.0
08/06/2021,15:11:36,TEMP=18.2,BA=5.52,STAT.b=19.0
08/06/2021,15:13:17,TEMP=18.2,BA=5.52,STAT.b=19.0
08/06/2021,15:16:17,TEMP=18.2,BA=5.52,STAT.b=19.0
08/06/2021,15:19:17,TEMP=18.2,BA=5.52,STAT.b=19.0
08/06/2021,15:22:17,TEMP=18.2,BA=5.56,STAT.b=19.0
08/06/2021,15:25:34,TEMP=18.2,BA=5.56,STAT.b=19.0
08/06/2021,15:27:05,TEMP=18.2,BA=5.56,STAT.b=19.0
08/06/2021,15:31:34,TEMP=18.2,BA=5.60,STAT.b=19.0
08/06/2021,15:34:34,TEMP=18.2,BA=5.60,STAT.b=19.0
08/06/2021,15:37:34,TEMP=18.2,BA=5.60,STAT.b=19.0
08/06/2021,15:40:34,TEMP=18.2,BA=5.52,STAT.b=19.0
08/06/2021,15:42:09,TEMP=18.2,BA=5.52,STAT.b=19.0
08/06/2021,15:46:34,TEMP=18.2,BA=5.52,STAT.b=19.0
08/06/2021,15:49:34,TEMP=18.2,BA=5.52,STAT.b=19.0
08/06/2021,15:52:17,TEMP=18.2,BA=5.68,STAT.b=19.0
08/06/2021,15:55:17,TEMP=18.2,BA=5.68,STAT.b=19.0
08/06/2021,15:56:52,TEMP=18.2,BA=5.68,STAT.b=19.0
08/06/2021,16:01:17,TEMP=18.2,BA=5.68,STAT.b=19.0
08/06/2021,16:04:17,TEMP=18.2,BA=5.68,STAT.b=19.0
08/06/2021,16:07:17,TEMP=18.2,BA=5.68,STAT.b=19.0
08/06/2021,16:10:17,TEMP=18.2,BA=5.52,STAT.b=19.0
08/06/2021,16:11:36,TEMP=18.2,BA=5.52,STAT.b=19.0
08/06/2021,16:13:17,TEMP=18.2,BA=5.52,STAT.b=19.0
08/06/2021,16:16:17,TEMP=18.2,BA=5.52,STAT.b=19.0
08/06/2021,16:19:17,TEMP=18.2,BA=5.52,STAT.b=19.0
08/06/2021,16:22:17,TEMP=18.2,BA=5.64,STAT.b=19.0
08/06/2021,16:23:38,TEMP=18.2,BA=5.64,STAT.b=19.0
08/06/2021,16:25:17,TEMP=18.2,BA=5.64,STAT.b=19.0
08/06/2021,16:28:17,TEMP=18.2,BA=5.64,STAT.b=19.0
08/06/2021,16:31:17,TEMP=18.2,BA=5.56,STAT.b=19.0
08/06/2021,16:34:17,TEMP=18.2,BA=5.56,STAT.b=19.0
08/06/2021,16:37:17,TEMP=18.2,BA=5.56,STAT.b=19.0
08/06/2021,16:40:18,TEMP=18.2,BA=5.48,STAT.b=19.0
08/06/2021,16:43:17,TEMP=18.2,BA=5.48,STAT.b=19.0
08/06/2021,16:46:17,TEMP=18.2,BA=5.48,STAT.b=19.0
08/06/2021,16:49:17,TEMP=18.2,BA=5.48,STAT.b=19.0
08/06/2021,16:52:18,TEMP=18.2,BA=5.60,STAT.b=19.0
08/06/2021,16:55:17,TEMP=18.2,BA=5.60,STAT.b=19.0
08/06/2021,16:58:17,TEMP=18.2,BA=5.60,STAT.b=19.0
08/06/2021,17:01:17,TEMP=18.2,BA=5.60,STAT.b=19.0
08/06/2021,17:04:17,TEMP=18.2,BA=5.60,STAT.b=19.0
08/06/2021,17:05:38,TEMP=18.2,BA=5.60,STAT.b=19.0
08/06/2021,17:07:17,TEMP=18.2,BA=5.60,STAT.b=19.0
08/06/2021,17:10:17,TEMP=18.2,BA=5.48,STAT.b=19.0
08/06/2021,17:13:17,TEMP=18.2,BA=5.48,STAT.b=19.0
08/06/2021,17:16:17,TEMP=18.2,BA=5.48,STAT.b=19.0
08/06/2021,17:19:18,TEMP=18.2,BA=5.48,STAT.b=19.0
08/06/2021,17:22:17,TEMP=18.2,BA=5.56,STAT.b=19.0
08/06/2021,17:25:17,TEMP=18.2,BA=5.56,STAT.b=19.0
08/06/2021,17:26:38,TEMP=18.2,BA=5.56,STAT.b=19.0
08/06/2021,17:28:17,TEMP=18.2,BA=5.56,STAT.b=19.0
08/06/2021,17:31:17,TEMP=18.2,BA=5.52,STAT.b=19.0
08/06/2021,17:34:17,TEMP=18.2,BA=5.52,STAT.b=19.0
08/06/2021,17:37:17,TEMP=18.2,BA=5.52,STAT.b=19.0
08/06/2021,17:40:18,TEMP=18.2,BA=5.44,STAT.b=19.0
08/06/2021,17:42:29,TEMP=18.2,BA=5.44,STAT.b=19.0
08/06/2021,17:46:18,TEMP=18.2,BA=5.44,STAT.b=19.0
08/06/2021,17:49:17,TEMP=18.2,BA=5.44,STAT.b=19.0
08/06/2021,17:52:18,TEMP=18.2,BA=5.52,STAT.b=19.0
08/06/2021,17:55:17,TEMP=18.2,BA=5.52,STAT.b=19.0
08/06/2021,17:56:38,TEMP=18.2,BA=5.52,STAT.b=19.0
08/06/2021,17:58:17,TEMP=18.2,BA=5.52,STAT.b=19.0
08/06/2021,18:01:17,TEMP=18.2,BA=5.52,STAT.b=19.0
08/06/2021,18:04:18,TEMP=18.2,BA=5.52,STAT.b=19.0
08/06/2021,18:07:17,TEMP=18.2,BA=5.52,STAT.b=19.0
08/06/2021,18:08:38,TEMP=18.2,BA=5.52,STAT.b=19.0
08/06/2021,18:10:17,TEMP=18.2,BA=5.44,STAT.b=19.0
08/06/2021,18:13:17,TEMP=18.2,BA=5.44,STAT.b=19.0
08/06/2021,18:16:17,TEMP=18.2,BA=5.44,STAT.b=19.0
08/06/2021,18:18:42,TEMP=18.2,BA=5.44,STAT.b=19.0
08/06/2021,18:22:17,TEMP=18.2,BA=5.52,STAT.b=19.0
08/06/2021,18:25:34,TEMP=18.2,BA=5.52,STAT.b=19.0
08/06/2021,18:27:58,TEMP=18.2,BA=5.52,STAT.b=19.0
08/06/2021,18:31:34,TEMP=18.2,BA=5.56,STAT.b=19.0
08/06/2021,18:34:34,TEMP=18.2,BA=5.56,STAT.b=19.0
08/06/2021,18:36:10,TEMP=18.2,BA=5.56,STAT.b=19.0
08/06/2021,18:40:34,TEMP=18.2,BA=5.48,STAT.b=19.0
08/06/2021,18:42:58,TEMP=18.2,BA=5.48,STAT.b=19.0
08/06/2021,18:46:34,TEMP=18.2,BA=5.48,STAT.b=19.0
08/06/2021,18:49:18,TEMP=18.2,BA=5.48,STAT.b=19.0
08/06/2021,18:52:18,TEMP=18.2,BA=5.52,STAT.b=19.0
08/06/2021,18:54:44,TEMP=18.2,BA=5.52,STAT.b=19.0
08/06/2021,18:58:17,TEMP=18.2,BA=5.52,STAT.b=19.0
08/06/2021,19:01:34,TEMP=18.2,BA=5.52,STAT.b=19.0
08/06/2021,19:04:34,TEMP=18.2,BA=5.52,STAT.b=19.0
08/06/2021,19:07:09,TEMP=18.2,BA=5.52,STAT.b=19.0
08/06/2021,19:10:34,TEMP=18.2,BA=5.40,STAT.b=19.0
08/06/2021,19:13:34,TEMP=18.2,BA=5.40,STAT.b=19.0
08/06/2021,19:16:34,TEMP=18.2,BA=5.40,STAT.b=19.0
08/06/2021,19:18:05,TEMP=18.2,BA=5.40,STAT.b=19.0
08/06/2021,19:22:34,TEMP=18.2,BA=5.48,STAT.b=19.0
08/06/2021,19:25:02,TEMP=18.2,BA=5.48,STAT.b=19.0
08/06/2021,19:28:17,TEMP=18.2,BA=5.48,STAT.b=19.0
08/06/2021,19:31:17,TEMP=18.2,BA=5.48,STAT.b=19.0
08/06/2021,19:32:37,TEMP=18.2,BA=5.48,STAT.b=19.0
08/06/2021,19:34:34,TEMP=18.2,BA=5.48,STAT.b=19.0
08/06/2021,19:37:17,TEMP=18.2,BA=5.48,STAT.b=19.0
08/06/2021,19:38:38,TEMP=18.2,BA=5.48,STAT.b=19.0
08/06/2021,19:40:18,TEMP=18.2,BA=5.40,STAT.b=19.0
08/06/2021,19:42:21,TEMP=18.2,BA=5.40,STAT.b=19.0